Location: *
(50.2903°S, 172.5375°W)
Time: 15:46:59
(UTC+00:00)

CZ-2C R/B - Pass Details

Date: 17 November 2019
Orbit: 503 x 567 km, 97.7° (Epoch: 14 December)

Event Time Altitude Azimuth Distance (km) Brightness Sun altitude
Exits shadow 12:56:42 - 43° (NE) 2,260 5.7 -17.2°
Reaches altitude 10° 12:57:40 10° 48° (NE) 1,888 5.4 -17.1°
Maximum altitude 13:01:23 35° 113° (ESE) 957 4.5 -16.9°
Drops below altitude 10° 13:05:08 10° 178° (S) 1,903 6.6 -16.6°
Sets 13:07:25 0° 186° (S) 2,803 7.4 -16.4°
